Track NIGERIASAT X now! 10-day predictions NIGERIASAT X is classified as:
1 37790U 11044C 24325.91350355 .00000863 00000-0 18853-3 0 9998 2 37790 97.8231 330.0127 0012157 348.3441 11.7477 14.60027701706689